Location: Gugi
(45.4667°N, 11.1000°E)
Time: 08:45:45
(UTC+00:00)

SMAP - Pass Details

Date: 17 November 2019
Orbit: 682 x 683 km, 98.1° (Epoch: 10 December)

Event Time Altitude Azimuth Distance (km) Brightness Sun altitude
Rises 16:10:10 0° 151° (SSE) 3,033 6.3 -5.0°
Reaches altitude 10° 16:12:27 10° 146° (SSE) 2,122 5.5 -5.4°
Maximum altitude 16:16:56 52° 71° (ENE) 854 3.2 -6.1°
Drops below altitude 10° 16:21:28 10° 356° (N) 2,137 5.5 -6.9°
Sets 16:23:45 0° 352° (N) 3,057 6.3 -7.3°
